DW3200 Weather Reports


time (UTC)temp
C
wind
direction
speed
KPH
gust
KPH
rain 1hr
cm
rain 24hr
cm
rain mn
cm
humidity
%
barometer
mb
20260503203059 23 304 4.8 0.0 0.00 0.00 0.00 33 1010.9
20260503201540 23 286 4.8 0.0 0.00 0.00 0.00 32 1011.1
20260503200037 23 273 4.8 0.0 0.00 0.00 0.00 28 1011.3
20260503194525 23 210 4.8 0.0 0.00 0.00 0.00 27 1011.4
20260503193014 23 291 3.2 0.0 0.00 0.00 0.00 30 1011.6
20260503191600 21 227 4.8 0.0 0.00 0.00 0.00 35 1011.8
20260503190053 22 201 4.8 0.0 0.00 0.00 0.00 37 1012.0
20260503184532 21 202 4.8 0.0 0.00 0.00 0.00 39 1012.1
20260503183036 21 216 3.2 0.0 0.00 0.00 0.00 42 1012.4
20260503181524 21 225 1.6 0.0 0.00 0.00 0.00 44 1012.5
20260503180009 20 242 3.2 0.0 0.00 0.00 0.00 44 1012.6
20260503174555 20 279 1.6 0.0 0.00 0.00 0.00 44 1012.8
20260503173055 19 280 1.6 0.0 0.00 0.00 0.00 43 1012.9
20260503171529 18 281 0.0 0.0 0.00 0.00 0.00 45 1013.0
20260503100105 5 289 0.0 0.0 0.00 0.00 0.00 86 1013.7
20260503081521 6 289 0.0 0.0 0.00 0.00 0.00 82 1013.1
20260503071524 8 289 0.0 0.0 0.00 0.00 0.00 80 1013.0
20260503060109 10 289 0.0 0.0 0.00 0.00 0.00 73 1012.9
20260503054539 10 289 0.0 0.0 0.00 0.00 0.00 72 1012.9
20260503053030 11 289 0.0 0.0 0.00 0.00 0.00 70 1012.9
20260503051515 11 289 0.0 0.0 0.00 0.00 0.00 68 1012.8
20260503050056 12 289 0.0 0.0 0.00 0.00 0.00 67 1012.7
20260503044619 12 289 0.0 0.0 0.00 0.00 0.00 66 1012.7
20260503043033 13 289 0.0 0.0 0.00 0.00 0.00 63 1012.6
20260503041528 14 289 0.0 0.0 0.00 0.00 0.00 58 1012.6
20260503040011 15 289 0.0 0.0 0.00 0.00 0.00 53 1012.4
20260503034504 16 289 0.0 0.0 0.00 0.00 0.00 49 1012.2
20260503033047 17 289 0.0 0.0 0.00 0.00 0.00 48 1012.1
20260503031546 17 289 0.0 0.0 0.00 0.00 0.00 49 1011.9
20260503030037 18 289 0.0 0.0 0.00 0.00 0.00 46 1011.7
20260503024533 19 289 1.6 0.0 0.00 0.00 0.00 42 1011.7
20260503023037 20 289 3.2 0.0 0.00 0.00 0.00 34 1011.6
20260503021531 21 289 4.8 0.0 0.00 0.00 0.00 32 1011.5
20260503020036 22 289 6.4 0.0 0.00 0.00 0.00 30 1011.4
20260503014531 23 270 3.2 0.0 0.00 0.00 0.00 29 1011.3
20260503013029 23 270 1.6 0.0 0.00 0.00 0.00 29 1011.3
20260503011530 23 270 1.6 0.0 0.00 0.00 0.00 30 1011.5
20260503010027 23 269 4.8 0.0 0.00 0.00 0.00 29 1011.5
20260503004527 22 269 1.6 0.0 0.00 0.00 0.00 30 1011.7
20260503003008 23 269 3.2 0.0 0.00 0.00 0.00 29 1011.8
20260503001509 24 267 1.6 0.0 0.00 0.00 0.00 25 1011.8
20260503000052 23 267 1.6 0.0 0.00 0.00 0.00 27 1011.9
20260502234601 23 265 6.4 0.0 0.00 0.00 0.00 27 1012.0
20260502233029 24 168 0.0 0.0 0.00 0.00 0.00 22 1012.2
20260502231532 24 170 1.6 0.0 0.00 0.00 0.00 22 1012.4
20260502230009 24 169 3.2 0.0 0.00 0.00 0.00 20 1012.5
20260502224507 23 169 1.6 0.0 0.00 0.00 0.00 19 1012.7
20260502223059 24 169 1.6 0.0 0.00 0.00 0.00 18 1012.8
20260502221547 24 172 1.6 0.0 0.00 0.00 0.00 19 1013.1
20260502220027 24 191 1.6 0.0 0.00 0.00 0.00 22 1013.2
20260502214524 24 191 3.2 0.0 0.00 0.00 0.00 20 1013.4
20260502213004 23 197 4.8 0.0 0.00 0.00 0.00 22 1013.5
20260502211502 23 293 1.6 0.0 0.00 0.00 0.00 26 1013.7
20260502210042 23 296 4.8 0.0 0.00 0.00 0.00 28 1013.7
20260502204542 23 290 6.4 0.0 0.00 0.00 0.00 29 1013.9